Vertical_Velocity
-2 -0 -2 -1 -1 -2 -3 -4 -4 -3 -2 -1 -5 -7 -5 -6 -11 -9 -6 -1 -1 -2 0 5 -12 2 2 -10 -7 9 12 -0 6 19 22 15 -1 -2 1 0 3 0 2
-2 0 -3 -2 -2 -1 -1 -2 -3 -6 -6 -3 -5 -5 -9 -8 -8 -9 -14 -7 -3 -1 -1 -1 0 19 -15 -4 -3 -6 3 7 -7 21 4 18 -2 0 -1 7 7 6 5
1 -1 -3 -3 -2 -0 -1 -1 -3 -4 -6 -6 -6 -6 -7 -8 -8 -7 -10 -15 -14 -6 2 2 4 -1 2 2 -2 2 -6 -1 -8 -4 24 12 13 -0 1 -0 -0 4 6
-4 -1 0 -4 -2 -3 -5 -4 -3 -4 -6 -9 -10 -6 -6 -7 -8 -3 -8 -11 -9 -10 -9 -5 4 -5 -7 -4 -2 4 -8 -8 -2 -1 17 8 20 11 6 0 4 2 3
-3 2 -2 -7 -5 -6 -7 -6 -5 -6 -4 -5 -6 -7 -6 -3 -8 -7 -6 -6 -6 -4 -5 -2 -5 -1 0 -10 1 -7 -0 -0 -13 -7 2 10 11 6 12 4 1 4 -2
-8 -2 -7 -10 -5 -4 -5 -4 -5 -6 -5 -1 -0 -3 -8 -6 -6 -6 -5 -3 -5 -4 -3 -0 -0 1 0 5 -4 -4 -3 4 -3 -18 0 8 3 -3 21 2 9 5 -7
-5 -1 -3 -9 -5 -8 -8 -2 -4 -6 -2 -6 -5 1 -2 -3 -5 -3 -4 -2 -2 -4 -3 -3 1 -2 -1 1 -3 0 0 1 6 -10 -9 -2 5 2 1 19 13 1 6
-4 1 -4 -5 -3 -6 -4 -3 -7 -4 -2 -2 -3 -2 -1 -4 -3 -3 -5 -2 -3 -7 -7 -4 -1 3 -1 -5 -2 -2 -2 5 -7 -2 -11 11 -9 21 -7 2 8 1 2
1 -1 -3 -3 -1 -3 1 -6 -3 2 -1 -5 -3 -4 -2 -0 -4 -4 -7 -5 -5 -0 -3 -5 -6 -0 -2 -9 1 6 7 4 -1 -3 1 4 -3 15 -10 13 7 1 -4
-1 -2 -5 2 2 1 -2 -3 -2 -3 -2 -3 -3 -4 -1 1 -5 -4 -10 -7 -3 -0 4 -2 -5 -2 -7 -5 0 -4 -2 2 4 2 -3 5 6 6 6 -5 12 10 2
-5 -4 1 0 -3 -2 -1 -1 -6 -7 -5 -6 -3 -4 -6 -9 -5 -6 -5 -1 -1 -2 1 3 1 -4 -4 -5 -10 -3 -1 -5 2 -3 -7 4 12 8 1 11 4 4 4
-3 -3 1 -3 -1 -1 -4 -4 -5 -5 -2 -0 -5 -4 -4 -5 -8 -3 -0 -1 -2 -6 -0 3 2 1 -3 -1 -4 -5 -5 -5 -3 -0 -0 7 2 1 2 8 1 6 2
1 -1 -4 -2 -1 2 -6 -7 -4 -5 -7 -5 -8 3 5 -6 -3 -3 3 1 4 -1 -7 0 1 1 -5 -3 -3 -1 -2 -3 -2 -0 -6 -1 1 2 0 -5 -6 15 -2
1 3 2 -4 -7 -1 0 1 -3 -1 -5 1 5 -0 -1 1 -1 5 1 1 2 4 5 1 3 -1 -4 2 -3 -2 -1 -3 -1 -1 1 -1 5 4 -2 13 -3 16 -5
4 6 4 5 3 6 12 6 3 3 0 -2 -3 -3 5 7 8 -1 1 3 5 0 -1 -3 -2 -8 -4 -1 -1 -0 -0 -6 1 -1 5 3 1 0 9 5 11 2 3
2 3 5 8 2 2 -4 -1 -1 4 -2 -4 2 -3 -2 -6 4 4 -0 -5 -3 -2 -7 -2 -5 -4 -5 -2 -2 -4 -3 1 1 -1 3 4 3 -0 7 6 10 -3 4
0 3 5 1 -3 -0 1 0 -0 -7 -0 4 2 -2 -4 -1 -1 0 -2 -5 -0 -9 -15 -3 -2 -3 -3 -3 0 -4 1 -0 -3 1 1 0 3 6 2 12 4 -3 8
1 -0 1 0 -0 2 2 1 -3 0 6 6 -4 -4 2 -2 -7 -7 -6 -10 -2 -2 -2 2 0 -1 -1 -2 0 -3 -5 -1 -3 -1 -2 5 1 4 -3 1 7 7 11
2 0 -4 -2 -3 -4 -0 -0 -2 -1 2 4 7 8 -5 -5 -7 -2 -0 -7 -2 -2 -1 0 -1 0 2 -2 -0 -4 -7 -2 -2 -5 1 7 -3 -6 6 -1 6 16 5
-3 1 2 -1 -1 2 -0 -0 2 -2 -4 -3 -3 0 7 -9 -5 -2 -5 -5 -4 -1 -3 -5 -1 -3 -3 -4 -3 -6 -6 -3 -1 -3 2 4 2 -7 5 -3 4 16 6
-1 0 -1 1 3 3 0 -4 -5 -5 -5 -5 0 4 -0 -2 3 0 -1 -6 -8 -3 -4 -7 -4 -4 -4 -3 -2 -5 -5 -1 -2 -3 -2 3 1 -4 -5 4 -2 18 18
2 1 -3 -4 -3 -2 -3 -1 -0 -1 -1 -2 1 1 -2 -9 -5 -2 -2 4 -0 -7 -4 -5 -3 -1 -1 -2 -3 -6 -3 -2 -0 -2 -0 0 2 -2 -10 3 -10 13 14
-1 -2 0 -0 -4 -3 -0 -2 -2 -2 -0 -2 -2 -0 3 -1 -4 -5 -2 0 1 1 -0 -6 -3 -0 1 -0 -3 -4 -3 3 3 -6 -2 -2 2 4 -6 1 -6 17 7
-2 -1 -1 -1 -1 -3 -2 -3 -2 -2 -5 -2 -1 -2 -1 -1 -3 -2 -1 -1 -2 -2 -3 -4 -3 1 1 -0 -1 -5 -2 3 -1 -3 -7 -2 4 7 -5 -4 3 15 11
-5 -2 -3 -3 -1 1 -1 -3 -1 0 1 1 -0 -3 -1 -4 -3 1 1 -0 -1 -3 0 -3 -4 2 1 0 -1 -3 -1 2 -0 1 -6 -4 2 2 -5 -7 2 5 9
-2 -2 -1 -1 -1 -1 -1 -0 1 -2 -2 -2 -1 -0 -1 -1 0 2 1 -1 -0 -2 -2 -2 1 -0 1 -0 1 -1 -1 3 2 2 -4 -6 -2 -0 -4 -4 -1 3 5
Height
5706 5705 5704 5703 5702 5700 5700 5699 5699 5698 5698 5697 5697 5696 5695 5695 5696 5695 5693 5691 5689 5686 5687 5691 5692 5692 5694 5700 5701 5708 5716 5718 5727 5736 5741 5744 5751 5757 5767 5773 5780 5786 5793
5694 5692 5691 5690 5689 5687 5686 5685 5684 5684 5684 5683 5683 5682 5682 5681 5681 5682 5681 5679 5677 5674 5670 5668 5671 5674 5678 5678 5684 5692 5696 5701 5709 5722 5726 5733 5737 5741 5750 5761 5769 5775 5782
5680 5679 5677 5675 5674 5672 5671 5670 5669 5669 5669 5668 5667 5666 5666 5666 5665 5664 5665 5664 5661 5658 5656 5653 5649 5653 5658 5660 5663 5671 5680 5683 5689 5699 5712 5719 5727 5730 5737 5746 5754 5763 5771
5666 5663 5661 5661 5660 5659 5657 5656 5655 5653 5651 5650 5649 5648 5647 5646 5646 5644 5645 5646 5645 5642 5638 5636 5635 5634 5638 5644 5647 5652 5658 5662 5671 5679 5698 5703 5714 5718 5726 5733 5741 5750 5758
5650 5648 5646 5645 5645 5643 5642 5640 5638 5636 5633 5631 5629 5628 5626 5624 5624 5623 5623 5623 5623 5623 5620 5618 5615 5614 5616 5623 5627 5632 5635 5643 5651 5664 5671 5685 5696 5707 5715 5719 5726 5734 5741
5635 5634 5630 5629 5628 5625 5622 5620 5618 5616 5614 5611 5608 5606 5604 5603 5601 5600 5600 5601 5600 5600 5600 5598 5596 5595 5596 5598 5605 5612 5616 5621 5632 5643 5651 5667 5675 5689 5700 5705 5711 5719 5729
5617 5614 5611 5609 5608 5604 5601 5599 5597 5595 5592 5590 5588 5585 5583 5580 5579 5578 5577 5579 5579 5578 5577 5577 5577 5574 5574 5578 5585 5590 5595 5600 5607 5618 5630 5645 5659 5667 5680 5689 5695 5703 5714
5595 5592 5588 5586 5584 5581 5579 5577 5575 5573 5570 5568 5566 5564 5562 5557 5555 5554 5554 5554 5554 5555 5554 5553 5554 5555 5555 5555 5560 5568 5574 5580 5587 5599 5608 5625 5641 5649 5658 5669 5678 5687 5698
5573 5569 5566 5563 5561 5559 5557 5553 5552 5551 5548 5545 5543 5541 5539 5536 5533 5531 5530 5530 5530 5531 5531 5531 5532 5533 5535 5538 5541 5546 5553 5560 5566 5574 5584 5597 5618 5629 5643 5653 5664 5674 5682
5548 5545 5542 5540 5538 5535 5531 5530 5528 5527 5525 5523 5521 5520 5516 5516 5510 5507 5506 5506 5508 5509 5510 5512 5513 5512 5511 5516 5520 5524 5532 5539 5546 5555 5565 5575 5594 5609 5623 5636 5645 5656 5667
5523 5520 5519 5517 5513 5510 5508 5505 5503 5503 5502 5499 5497 5496 5494 5492 5491 5486 5483 5482 5483 5486 5488 5491 5492 5493 5494 5495 5498 5503 5510 5519 5526 5534 5542 5552 5569 5586 5601 5615 5624 5637 5649
5497 5496 5494 5491 5488 5486 5483 5481 5479 5478 5477 5475 5473 5473 5470 5467 5465 5464 5460 5457 5458 5462 5466 5468 5471 5472 5475 5477 5478 5481 5488 5497 5506 5513 5524 5533 5548 5562 5577 5592 5607 5618 5630
5474 5471 5469 5467 5464 5462 5460 5457 5456 5452 5451 5449 5447 5447 5446 5442 5441 5438 5434 5435 5436 5439 5443 5446 5448 5451 5454 5457 5460 5461 5463 5472 5483 5493 5503 5512 5522 5539 5554 5575 5588 5598 5611
5449 5446 5443 5440 5438 5436 5433 5429 5428 5425 5424 5423 5422 5421 5420 5417 5415 5411 5410 5413 5415 5417 5420 5423 5426 5429 5433 5437 5439 5442 5444 5448 5459 5470 5482 5493 5501 5518 5537 5554 5570 5578 5592
5423 5420 5417 5414 5411 5409 5406 5403 5401 5399 5396 5396 5395 5393 5391 5391 5390 5389 5389 5391 5394 5395 5397 5401 5404 5407 5410 5414 5418 5422 5423 5427 5437 5448 5459 5471 5482 5497 5519 5534 5550 5559 5572
5398 5395 5393 5390 5387 5384 5380 5378 5375 5372 5368 5368 5368 5366 5367 5368 5367 5367 5368 5368 5370 5371 5374 5378 5382 5384 5386 5390 5394 5399 5404 5408 5416 5426 5439 5450 5461 5478 5497 5514 5529 5543 5560
5372 5370 5366 5364 5360 5356 5353 5351 5351 5345 5345 5344 5341 5341 5341 5344 5343 5343 5344 5344 5345 5347 5348 5352 5356 5359 5362 5366 5372 5377 5383 5389 5396 5406 5418 5429 5440 5458 5474 5492 5511 5527 5544
5343 5342 5339 5335 5334 5331 5328 5326 5324 5323 5321 5318 5314 5315 5317 5316 5316 5316 5316 5317 5320 5322 5324 5326 5329 5333 5338 5343 5349 5356 5361 5368 5376 5386 5396 5409 5425 5439 5456 5475 5492 5510 5526
5320 5317 5314 5310 5308 5307 5304 5301 5298 5296 5295 5295 5294 5290 5286 5285 5289 5290 5289 5289 5292 5298 5301 5304 5307 5310 5314 5319 5326 5333 5339 5347 5355 5365 5377 5389 5403 5415 5433 5455 5474 5490 5508
5298 5295 5292 5290 5287 5284 5281 5279 5276 5272 5271 5270 5269 5268 5265 5261 5262 5262 5262 5263 5266 5270 5273 5277 5282 5286 5290 5295 5302 5309 5316 5324 5333 5345 5356 5369 5383 5398 5416 5435 5453 5470 5490
5278 5275 5271 5268 5265 5262 5259 5255 5251 5248 5246 5244 5243 5240 5236 5234 5237 5235 5233 5232 5234 5237 5241 5244 5251 5256 5262 5267 5274 5282 5290 5301 5311 5324 5337 5349 5363 5381 5396 5413 5434 5454 5470
5259 5255 5252 5248 5244 5240 5236 5231 5226 5222 5218 5215 5213 5210 5204 5201 5203 5203 5203 5203 5203 5205 5208 5211 5219 5226 5232 5238 5246 5256 5265 5278 5291 5303 5317 5329 5343 5361 5378 5393 5420 5436 5450
5240 5235 5231 5226 5220 5215 5210 5204 5198 5194 5189 5186 5182 5180 5177 5175 5173 5173 5174 5175 5176 5179 5182 5185 5192 5201 5207 5213 5222 5233 5245 5258 5270 5282 5298 5311 5324 5343 5359 5378 5401 5418 5436
5220 5215 5208 5202 5196 5189 5184 5179 5173 5168 5163 5160 5157 5154 5152 5151 5150 5149 5149 5149 5150 5155 5159 5163 5170 5177 5185 5192 5201 5213 5226 5239 5250 5264 5279 5294 5308 5324 5341 5362 5383 5401 5419
5198 5192 5186 5179 5174 5168 5163 5158 5153 5148 5144 5140 5136 5134 5132 5131 5129 5128 5128 5128 5130 5134 5139 5142 5148 5156 5165 5174 5183 5195 5208 5220 5233 5246 5262 5278 5292 5306 5324 5350 5369 5389 5406
5178 5172 5165 5160 5155 5150 5145 5141 5136 5130 5125 5121 5117 5114 5111 5110 5108 5108 5108 5110 5112 5116 5120 5125 5131 5138 5147 5157 5167 5179 5192 5205 5219 5231 5245 5261 5276 5292 5311 5336 5358 5377 5394